Location: *
(51.0333°S, 178.4667°E)
Time: 00:33:15
(UTC+00:00)

Resurs 1-3 - Pass Details

Date: 15 November 2019
Orbit: 630 x 632 km, 98.0° (Epoch: 05 December)

Event Time Altitude Azimuth Distance (km) Brightness Sun altitude
Rises 09:29:41 0° 167° (SSE) 2,975 7.7 -13.9°
Reaches altitude 10° 09:31:55 10° 167° (SSE) 2,059 6.9 -14.1°
Maximum altitude 09:36:25 83° 255° (WSW) 657 3.7 -14.5°
Enters shadow 09:40:41 11° 341° (NNW) 1,964 5.8 -14.9°
